GW1027 Weather Reports


Display with metric or nautical units.
time (UTC)temp
F
wind
direction
speed
MPH
gust
MPH
rain 1hr
in
rain 24hr
in
rain mn
in
humidity
%
barometer
mb
20260903082204 62 317 1.0 2.0 0.00 0.02 0.01 96 992.0
20260903081704 62 260 1.0 6.0 0.00 0.02 0.01 96 992.2
20260903081204 62 222 1.0 3.0 0.00 0.02 0.01 97 992.2
20260903080704 62 240 1.0 3.0 0.00 0.02 0.01 97 992.2
20260903074704 62 199 1.0 3.0 0.00 0.02 0.01 96 992.2
20260903074204 62 199 2.0 3.0 0.00 0.02 0.01 96 992.2
20260903073708 62 193 2.0 3.0 0.00 0.02 0.01 96 992.2
20260903073204 62 226 1.0 2.0 0.00 0.02 0.01 96 992.2
20260903072704 62 161 2.0 3.0 0.00 0.02 0.01 96 992.1
20260903072204 62 109 2.0 5.0 0.00 0.02 0.01 96 992.1
20260903071703 62 179 1.0 3.0 0.00 0.02 0.01 96 992.3
20260903071203 62 226 1.0 2.0 0.00 0.02 0.01 96 992.3
20260903070704 62 32 1.0 3.0 0.00 0.02 0.01 96 992.4
20260903065703 62 245 1.0 3.0 0.00 0.02 0.01 96 992.6
20260903065203 62 253 1.0 2.0 0.00 0.02 0.01 96 992.6
20260903064704 62 208 1.0 7.0 0.00 0.02 0.01 95 992.5
20260903063704 62 236 1.0 2.0 0.00 0.02 0.01 94 992.5
20260903063204 62 216 1.0 2.0 0.00 0.02 0.01 94 992.5
20260903062703 62 301 1.0 2.0 0.00 0.02 0.01 94 992.4
20260903062203 62 194 1.0 2.0 0.00 0.01 0.01 94 992.5
20260903061704 63 267 1.0 8.0 0.00 0.01 0.01 93 992.4
20260903061204 63 164 1.0 2.0 0.00 0.01 0.01 92 992.4
20260903055705 63 160 2.0 3.0 0.01 0.01 0.01 88 992.5
20260903055204 63 222 1.0 3.0 0.01 0.01 0.01 89 992.5
20260903054704 63 215 2.0 2.0 0.01 0.01 0.01 89 992.7
20260903054204 63 164 2.0 2.0 0.01 0.01 0.01 90 992.8
20260903053704 63 196 1.0 2.0 0.01 0.01 0.01 92 992.8
20260903053203 63 177 1.0 1.0 0.01 0.01 0.01 91 993.1
20260903052705 63 273 2.0 2.0 0.01 0.01 0.01 91 993.2
20260903052204 63 206 1.0 1.0 0.01 0.01 0.01 90 993.2
20260903051703 64 167 1.0 2.0 0.01 0.01 0.01 88 993.1
20260903051205 64 167 1.0 2.0 0.01 0.01 0.01 88 993.0
20260903050704 65 139 2.0 6.0 0.01 0.01 0.01 86 993.0
20260903050203 66 143 2.0 5.0 0.01 0.01 0.01 84 993.2
20260903045704 67 336 3.0 9.0 0.00 0.00 0.00 76 993.1
20260903044704 67 273 2.0 8.0 0.00 0.00 0.00 74 992.9
20260903044204 67 267 3.0 7.0 0.00 0.00 0.00 75 992.9
20260903043704 67 218 3.0 7.0 0.00 0.00 0.00 74 993.0
20260903042704 67 162 3.0 6.0 0.00 0.00 0.00 74 992.9
20260903042205 67 306 5.0 8.0 0.00 0.00 0.00 74 993.0
20260903041704 67 300 2.0 8.0 0.00 0.00 0.00 74 993.0
20260903041204 67 236 5.0 5.0 0.00 0.00 0.00 74 993.0
20260903040704 67 259 5.0 6.0 0.00 0.00 0.00 74 993.0
20260903040204 67 175 3.0 8.0 0.00 0.00 0.00 74 992.9
20260903035703 67 297 3.0 7.0 0.00 0.00 0.00 75 993.0
20260903035203 67 310 2.0 6.0 0.00 0.00 0.00 76 993.0
20260903034704 67 204 5.0 6.0 0.00 0.00 0.00 76 993.0
20260903034204 67 310 5.0 10.0 0.00 0.00 0.00 75 992.9
20260903033203 67 350 2.0 8.0 0.00 0.00 0.00 77 992.9
20260903032203 67 223 2.0 7.0 0.00 0.00 0.00 77 993.0
20260903031703 67 240 2.0 7.0 0.00 0.00 0.00 77 993.4
20260903031203 67 48 2.0 5.0 0.00 0.00 0.00 77 993.5
20260903030704 68 164 2.0 3.0 0.00 0.00 0.00 77 993.7
20260903030204 68 208 2.0 3.0 0.00 0.00 0.00 76 993.8
20260903025203 67 166 2.0 3.0 0.00 0.00 0.00 77 993.8
20260903024703 67 307 2.0 3.0 0.00 0.00 0.00 77 993.9
20260903024204 67 308 2.0 3.0 0.00 0.00 0.00 78 994.0
20260903023704 67 343 2.0 3.0 0.00 0.00 0.00 78 994.1
20260903023203 67 243 2.0 6.0 0.00 0.00 0.00 79 994.2
20260903022703 67 247 2.0 6.0 0.00 0.00 0.00 81 994.5
20260903022204 67 317 3.0 6.0 0.00 0.00 0.00 81 994.6
20260903021704 67 333 3.0 7.0 0.00 0.00 0.00 81 994.5
20260903021203 67 5 3.0 8.0 0.00 0.00 0.00 81 994.5
20260903020703 67 328 3.0 8.0 0.00 0.00 0.00 80 994.5
20260903020203 67 338 2.0 6.0 0.00 0.00 0.00 80 994.5
20260903015704 67 324 3.0 6.0 0.00 0.00 0.00 80 994.6
20260903015203 67 281 2.0 3.0 0.00 0.00 0.00 78 994.7
20260903014704 67 297 2.0 5.0 0.00 0.00 0.00 79 994.8
20260903014204 67 243 2.0 6.0 0.00 0.00 0.00 78 994.9
20260903013704 68 307 2.0 6.0 0.00 0.00 0.00 77 995.0
20260903013204 68 106 2.0 3.0 0.00 0.00 0.00 78 995.1
20260903012704 68 203 1.0 2.0 0.00 0.00 0.00 77 995.0
20260903012204 68 218 1.0 3.0 0.00 0.00 0.00 76 994.9
20260903011704 68 195 1.0 5.0 0.00 0.00 0.00 76 994.8
20260903011204 68 185 2.0 5.0 0.00 0.00 0.00 75 994.9
20260903010704 68 190 1.0 5.0 0.00 0.00 0.00 75 994.7
20260903010204 68 200 2.0 2.0 0.00 0.00 0.00 75 994.6
20260903005704 68 299 2.0 3.0 0.00 0.00 0.00 75 994.5
20260903005204 68 231 2.0 3.0 0.00 0.00 0.00 75 994.3
20260903004704 68 109 2.0 2.0 0.00 0.00 0.00 76 994.5
20260903004204 68 208 2.0 3.0 0.00 0.00 0.00 75 994.5
20260903003704 68 198 2.0 5.0 0.00 0.00 0.00 75 994.7
20260903003204 68 164 2.0 5.0 0.00 0.00 0.00 76 994.5
20260903002703 68 180 2.0 2.0 0.00 0.00 0.00 76 994.6
20260903001704 68 190 2.0 3.0 0.00 0.00 0.00 75 994.4
20260903001204 68 175 2.0 3.0 0.00 0.00 0.00 76 994.3
20260903000704 68 246 2.0 3.0 0.00 0.00 0.00 76 994.1
20260903000204 68 189 2.0 3.0 0.00 0.00 0.00 76 994.4
20260902235703 68 117 2.0 3.0 0.00 0.00 0.00 76 994.5
20260902235203 68 177 2.0 3.0 0.00 0.00 0.00 76 994.4
20260902234703 68 147 2.0 5.0 0.00 0.00 0.00 75 994.4
20260902234203 68 357 2.0 3.0 0.00 0.00 0.00 76 994.2
20260902233704 68 141 2.0 5.0 0.00 0.00 0.00 76 994.2
20260902233204 68 115 2.0 3.0 0.00 0.00 0.00 76 994.2
20260902231204 68 106 2.0 5.0 0.00 0.00 0.00 75 994.4
20260902230705 68 196 2.0 3.0 0.00 0.00 0.00 75 994.4
20260902230204 68 216 2.0 3.0 0.00 0.00 0.00 75 994.6
20260902224703 68 237 3.0 5.0 0.00 0.00 0.00 75 995.0
20260902224204 68 217 2.0 2.0 0.00 0.00 0.00 76 995.3
20260902223704 68 217 2.0 3.0 0.00 0.00 0.00 75 995.4
20260902222703 69 211 1.0 2.0 0.00 0.00 0.00 76 996.0
20260902222203 69 202 1.0 3.0 0.00 0.00 0.00 76 996.2
20260902221703 69 197 1.0 3.0 0.00 0.00 0.00 76 996.2
20260902221204 69 141 2.0 3.0 0.00 0.00 0.00 76 996.3
20260902220704 69 160 2.0 3.0 0.00 0.00 0.00 75 996.2
20260902215704 69 205 1.0 3.0 0.00 0.00 0.00 75 996.3
20260902215204 69 128 2.0 3.0 0.00 0.00 0.00 76 996.3
20260902214704 69 212 2.0 2.0 0.00 0.00 0.00 75 996.3
20260902214205 69 51 2.0 3.0 0.00 0.00 0.00 75 996.3
20260902213704 69 221 1.0 2.0 0.00 0.00 0.00 76 996.3
20260902213204 69 221 2.0 3.0 0.00 0.00 0.00 76 996.3
20260902212703 69 205 2.0 2.0 0.00 0.00 0.00 75 996.3
20260902212203 69 220 2.0 3.0 0.00 0.00 0.00 76 996.3
20260902211704 69 56 2.0 2.0 0.00 0.00 0.00 76 996.3
20260902211203 69 223 2.0 3.0 0.00 0.00 0.00 76 996.3
20260902210704 69 210 2.0 3.0 0.00 0.00 0.00 76 996.3
20260902205203 70 9 2.0 3.0 0.00 0.00 0.00 76 996.3
20260902204705 70 213 2.0 3.0 0.00 0.00 0.00 75 996.2
20260902204204 70 224 1.0 3.0 0.00 0.00 0.00 76 996.1
20260902203704 70 218 2.0 3.0 0.00 0.00 0.00 75 996.1
20260902203204 70 219 2.0 3.0 0.00 0.00 0.00 75 996.3
20260902202703 70 225 2.0 3.0 0.00 0.00 0.00 74 996.5
20260902202204 70 233 2.0 3.0 0.00 0.00 0.00 75 996.5
20260902201704 70 217 2.0 3.0 0.00 0.00 0.00 75 996.5
20260902201204 70 213 2.0 3.0 0.00 0.00 0.00 75 996.6
20260902195704 71 226 1.0 2.0 0.00 0.00 0.00 73 996.4
20260902195203 71 222 2.0 3.0 0.00 0.00 0.00 73 996.4
20260902194704 71 234 3.0 5.0 0.00 0.00 0.00 72 996.5
20260902194204 71 215 3.0 3.0 0.00 0.00 0.00 72 996.5
20260902193704 72 206 2.0 3.0 0.00 0.00 0.00 70 996.5
20260902193204 71 196 1.0 2.0 0.00 0.00 0.00 71 996.7
20260902192203 70 222 2.0 3.0 0.00 0.00 0.00 73 997.0
20260902191704 70 220 1.0 3.0 0.00 0.00 0.00 73 997.0
20260902191204 70 214 1.0 3.0 0.00 0.00 0.00 74 996.9
20260902190704 71 211 3.0 3.0 0.00 0.00 0.00 73 996.9
20260902190204 71 222 2.0 3.0 0.00 0.00 0.00 73 996.9
20260902185704 71 213 2.0 3.0 0.00 0.00 0.00 72 996.9
20260902185205 72 164 2.0 3.0 0.00 0.00 0.00 71 996.9
20260902184703 73 216 3.0 3.0 0.00 0.00 0.00 70 996.8
20260902184204 73 70 3.0 2.0 0.00 0.00 0.00 68 996.8
20260902183704 73 218 3.0 3.0 0.00 0.00 0.00 68 996.8
20260902183203 73 209 3.0 3.0 0.00 0.00 0.00 67 996.8
20260902182704 73 201 2.0 3.0 0.00 0.00 0.00 67 997.0
20260902182204 72 217 2.0 3.0 0.00 0.00 0.00 68 997.1
20260902181705 71 48 2.0 2.0 0.00 0.00 0.00 71 997.2
20260902181204 71 226 2.0 2.0 0.00 0.00 0.00 70 997.3
20260902180703 71 219 2.0 3.0 0.00 0.00 0.00 71 997.4
20260902175704 71 94 1.0 3.0 0.00 0.00 0.00 70 997.3
20260902175205 71 226 3.0 3.0 0.00 0.00 0.00 68 997.4
20260902174703 71 209 2.0 2.0 0.00 0.00 0.00 68 997.2
20260902174204 71 209 3.0 5.0 0.00 0.00 0.00 67 997.1
20260902173703 71 55 3.0 5.0 0.00 0.00 0.00 67 997.1
20260902173204 71 128 3.0 3.0 0.00 0.00 0.00 66 997.1
20260902172704 71 211 3.0 5.0 0.00 0.00 0.00 68 997.1
20260902172203 72 212 3.0 3.0 0.00 0.00 0.00 67 997.0
20260902171704 73 40 2.0 2.0 0.00 0.00 0.00 65 997.0
20260902171204 74 196 2.0 3.0 0.00 0.00 0.00 64 997.1
20260902165703 72 211 3.0 5.0 0.00 0.00 0.00 65 997.0
20260902165204 71 221 2.0 3.0 0.00 0.00 0.00 67 997.2
20260902164703 71 222 2.0 3.0 0.00 0.00 0.00 66 997.3
20260902164204 72 221 2.0 3.0 0.00 0.00 0.00 67 997.3
20260902163703 72 256 2.0 32.0 0.00 0.00 0.00 68 997.5
20260902163204 72 223 2.0 3.0 0.00 0.00 0.00 67 997.5
20260902162704 71 222 3.0 3.0 0.00 0.00 0.00 69 997.4
20260902162204 70 220 3.0 3.0 0.00 0.00 0.00 70 997.5
20260902161704 70 222 3.0 3.0 0.00 0.00 0.00 70 997.6
20260902161204 70 223 3.0 3.0 0.00 0.00 0.00 70 997.6
20260902160203 69 225 3.0 3.0 0.00 0.00 0.00 69 997.6
20260902155205 70 221 2.0 3.0 0.00 0.00 0.00 70 997.9
20260902154704 70 219 3.0 3.0 0.00 0.00 0.00 70 997.9
20260902154203 69 221 3.0 3.0 0.00 0.00 0.00 70 997.8
20260902153704 69 217 3.0 3.0 0.00 0.00 0.00 70 997.9
20260902152703 68 221 3.0 3.0 0.00 0.00 0.00 70 998.1
20260902152204 68 220 3.0 3.0 0.00 0.00 0.00 71 998.1
20260902151704 68 218 3.0 3.0 0.00 0.00 0.00 72 998.2
20260902151204 68 220 3.0 3.0 0.00 0.00 0.00 71 998.2
20260902150704 68 221 2.0 3.0 0.00 0.00 0.00 71 998.2
20260902150203 68 217 2.0 3.0 0.00 0.00 0.00 72 998.3
20260902145704 68 220 3.0 3.0 0.00 0.00 0.00 71 998.2
20260902144703 68 220 2.0 3.0 0.00 0.00 0.00 72 998.3
20260902144204 68 222 3.0 3.0 0.00 0.00 0.00 72 998.2
20260902143703 67 221 2.0 3.0 0.00 0.00 0.00 73 998.1
20260902142705 67 217 2.0 3.0 0.00 0.00 0.00 75 998.3
20260902141203 67 226 2.0 3.0 0.00 0.00 0.00 74 998.3
20260902140704 67 217 2.0 3.0 0.00 0.00 0.00 74 998.1
20260902135704 68 224 2.0 3.0 0.00 0.00 0.00 73 997.9
20260902135204 68 215 2.0 3.0 0.00 0.00 0.00 73 997.8
20260902134203 68 219 2.0 2.0 0.00 0.00 0.00 73 997.8
20260902133704 67 218 2.0 3.0 0.00 0.00 0.00 73 997.7
20260902133204 67 214 2.0 3.0 0.00 0.00 0.00 75 997.7
20260902132204 66 218 2.0 3.0 0.00 0.00 0.00 75 997.6
20260902131705 66 220 2.0 2.0 0.00 0.00 0.00 75 997.5
20260902131204 66 223 2.0 3.0 0.00 0.00 0.00 76 997.5
20260902130705 66 219 3.0 3.0 0.00 0.00 0.00 78 997.6
20260902130204 66 220 3.0 3.0 0.00 0.00 0.00 77 997.7
20260902125704 66 219 3.0 30.0 0.00 0.00 0.00 76 997.6
20260902125204 66 218 5.0 14.0 0.00 0.00 0.00 77 997.5
20260902124703 66 216 2.0 3.0 0.00 0.00 0.00 76 997.5
20260902124204 65 218 2.0 3.0 0.00 0.00 0.00 77 997.5
20260902123704 65 222 3.0 7.0 0.00 0.00 0.00 77 997.5
20260902122703 65 226 2.0 6.0 0.00 0.01 0.00 76 997.5
20260902122204 65 227 2.0 6.0 0.00 0.01 0.00 76 997.5
20260902121704 65 224 3.0 6.0 0.00 0.02 0.00 76 997.4
20260902121204 65 219 2.0 6.0 0.00 0.02 0.00 77 997.5
20260902120704 64 162 3.0 5.0 0.00 0.03 0.00 77 997.5
20260902120204 64 233 3.0 6.0 0.00 0.03 0.00 77 997.4
20260902115703 64 216 2.0 3.0 0.00 0.03 0.00 77 997.4
20260902115204 64 232 2.0 3.0 0.00 0.03 0.00 76 997.5
20260902114704 64 222 3.0 3.0 0.00 0.04 0.00 77 997.6
20260902114203 64 210 3.0 3.0 0.00 0.04 0.00 77 997.7
20260902113704 64 214 2.0 22.0 0.00 0.04 0.00 77 997.7
20260902113203 64 13 2.0 22.0 0.00 0.04 0.00 78 997.6
20260902112705 64 230 2.0 5.0 0.00 0.04 0.00 78 997.7
20260902112203 64 180 3.0 13.0 0.00 0.04 0.00 78 997.8
20260902111705 64 215 3.0 14.0 0.00 0.05 0.00 78 997.8
20260902110704 64 212 3.0 8.0 0.00 0.05 0.00 79 997.7
20260902110204 64 217 3.0 7.0 0.00 0.06 0.00 78 997.8
20260902105704 64 203 3.0 14.0 0.00 0.06 0.00 78 997.7
20260902105204 64 219 2.0 7.0 0.00 0.06 0.00 78 997.7
20260902104705 64 223 2.0 3.0 0.00 0.06 0.00 79 997.7
20260902104204 63 221 2.0 2.0 0.00 0.06 0.00 78 997.6
20260902103704 63 222 2.0 2.0 0.00 0.06 0.00 79 997.5
20260902103204 63 165 2.0 6.0 0.00 0.07 0.00 80 997.6
20260902102704 63 96 2.0 2.0 0.00 0.07 0.00 81 997.6
20260902102204 63 224 2.0 2.0 0.00 0.07 0.00 82 997.5
20260902101703 63 199 2.0 2.0 0.00 0.07 0.00 80 997.6
20260902101203 63 194 1.0 2.0 0.00 0.08 0.00 81 997.5
20260902100704 63 224 2.0 3.0 0.00 0.09 0.00 80 997.5
20260902100204 63 202 1.0 5.0 0.00 0.09 0.00 81 997.5
20260902095704 64 215 2.0 5.0 0.00 0.09 0.00 79 997.4
20260902095204 64 203 2.0 8.0 0.00 0.09 0.00 79 997.3
20260902094704 63 214 2.0 5.0 0.00 0.09 0.00 79 997.1
20260902093703 63 205 2.0 3.0 0.00 0.09 0.00 80 997.1
20260902093204 64 216 2.0 3.0 0.00 0.09 0.00 80 997.2
20260902092204 64 220 2.0 3.0 0.00 0.09 0.00 79 997.2
20260902091704 64 195 2.0 6.0 0.00 0.09 0.00 79 997.1
20260902091204 64 196 3.0 7.0 0.00 0.09 0.00 79 997.2
20260902090704 64 221 2.0 6.0 0.00 0.09 0.00 79 997.1
20260902090203 64 229 3.0 23.0 0.00 0.09 0.00 78 997.2
20260902085703 64 199 2.0 3.0 0.00 0.09 0.00 79 997.1
20260902085204 64 217 3.0 7.0 0.00 0.09 0.00 78 997.1
20260902084704 64 345 2.0 6.0 0.00 0.09 0.00 79 997.0
20260902084204 64 219 2.0 10.0 0.00 0.09 0.00 78 996.9
20260902083704 64 222 1.0 3.0 0.00 0.09 0.00 80 996.8
20260902083204 64 233 2.0 3.0 0.00 0.09 0.00 80 996.8
20260902082705 64 224 2.0 2.0 0.00 0.09 0.00 83 996.9